EW1917 Weather Reports


Display with metric or nautical units.
time (UTC)temp
F
wind
direction
speed
MPH
gust
MPH
rain 1hr
in
rain 24hr
in
rain mn
in
humidity
%
barometer
mb
20260504120242 70 171 4.0 10.0 0.00 0.00 0.00 46 1015.9
20260504110236 69 217 5.0 9.0 0.00 0.00 0.00 46 1016.2
20260504100236 67 233 2.0 10.0 0.00 0.00 0.00 49 1016.8
20260504081737 61 259 2.0 4.0 0.00 0.00 0.00 65 1017.1
20260504081245 61 296 3.0 4.0 0.00 0.00 0.00 63 1017.2
20260504080736 62 209 3.0 4.0 0.00 0.00 0.00 64 1017.1
20260504080239 61 215 0.0 3.0 0.00 0.00 0.00 65 1017.2
20260504070236 54 269 1.0 1.0 0.00 0.00 0.00 78 1017.6
20260504060239 50 105 0.0 0.0 0.00 0.00 0.00 85 1017.5
20260504050739 47 105 1.0 1.0 0.00 0.00 0.00 82 1017.2
20260504050236 47 105 0.0 2.0 0.00 0.00 0.00 82 1017.2
20260504045739 47 105 1.0 2.0 0.00 0.00 0.00 82 1017.2
20260504045236 47 105 0.0 0.0 0.00 0.00 0.00 82 1017.2
20260504044736 47 105 0.0 0.0 0.00 0.00 0.00 82 1017.2
20260504044242 47 105 0.0 2.0 0.00 0.00 0.00 82 1017.1
20260504043736 47 105 2.0 2.0 0.00 0.00 0.00 82 1017.1
20260504043236 47 105 0.0 0.0 0.00 0.00 0.00 82 1017.0
20260504042739 47 105 0.0 1.0 0.00 0.00 0.00 82 1017.1
20260504042236 46 105 1.0 1.0 0.00 0.00 0.00 82 1016.9
20260504041736 46 105 0.0 2.0 0.00 0.00 0.00 82 1017.0
20260504041236 47 105 1.0 3.0 0.00 0.00 0.00 82 1016.9
20260504040736 47 105 0.0 0.0 0.00 0.00 0.00 81 1016.9
20260504040236 47 105 0.0 0.0 0.00 0.00 0.00 81 1016.9
20260504035745 47 105 0.0 0.0 0.00 0.00 0.00 82 1016.9
20260504035239 46 105 0.0 0.0 0.00 0.00 0.00 82 1016.9
20260504034736 46 105 0.0 0.0 0.00 0.00 0.00 81 1016.9
20260504034236 47 105 0.0 0.0 0.00 0.00 0.00 80 1016.9
20260504033745 47 105 0.0 0.0 0.00 0.00 0.00 80 1016.9
20260504033239 47 105 0.0 0.0 0.00 0.00 0.00 80 1016.9
20260504032736 47 105 0.0 0.0 0.00 0.00 0.00 80 1016.9
20260504032239 47 105 0.0 0.0 0.00 0.00 0.00 80 1016.9
20260504031739 47 105 0.0 0.0 0.00 0.00 0.00 80 1016.9
20260504031242 47 105 0.0 0.0 0.00 0.00 0.00 81 1017.0
20260504030745 47 105 0.0 1.0 0.00 0.00 0.00 80 1017.0
20260504030236 47 105 0.0 2.0 0.00 0.00 0.00 80 1017.0
20260504025740 47 105 0.0 1.0 0.00 0.00 0.00 79 1017.0
20260504025242 47 105 0.0 0.0 0.00 0.00 0.00 79 1017.0
20260504024736 47 105 0.0 1.0 0.00 0.00 0.00 80 1017.0
20260504024236 47 105 1.0 2.0 0.00 0.00 0.00 80 1017.1
20260504023736 47 150 1.0 2.0 0.00 0.00 0.00 80 1017.1
20260504023239 47 162 1.0 2.0 0.00 0.00 0.00 80 1017.2
20260504022739 47 161 0.0 2.0 0.00 0.00 0.00 79 1017.2
20260504022238 47 192 0.0 1.0 0.00 0.00 0.00 79 1017.2
20260504021740 48 138 0.0 1.0 0.00 0.00 0.00 78 1017.2
20260504021237 48 139 0.0 0.0 0.00 0.00 0.00 78 1017.3
20260504020746 48 138 0.0 0.0 0.00 0.00 0.00 78 1017.3
20260504020245 48 138 0.0 2.0 0.00 0.00 0.00 77 1017.3
20260504015739 48 138 1.0 1.0 0.00 0.00 0.00 78 1017.3
20260504015242 48 138 0.0 2.0 0.00 0.00 0.00 77 1017.4
20260504014739 48 138 2.0 3.0 0.00 0.00 0.00 78 1017.3
20260504014236 48 138 2.0 3.0 0.00 0.00 0.00 78 1017.4
20260504013739 48 138 2.0 2.0 0.00 0.00 0.00 76 1017.4
20260504013236 48 138 0.0 1.0 0.00 0.00 0.00 74 1017.4
20260504012736 48 138 0.0 0.0 0.00 0.00 0.00 75 1017.5
20260504012239 49 138 0.0 1.0 0.00 0.00 0.00 76 1017.5
20260504011736 49 138 0.0 0.0 0.00 0.00 0.00 75 1017.4
20260504011236 49 138 0.0 0.0 0.00 0.00 0.00 77 1017.5
20260504010739 49 139 0.0 0.0 0.00 0.00 0.00 76 1017.5
20260504010236 49 138 0.0 1.0 0.00 0.00 0.00 76 1017.5
20260504005742 49 138 1.0 2.0 0.00 0.00 0.00 76 1017.4
20260504005239 49 138 2.0 3.0 0.00 0.00 0.00 78 1017.4
20260504004736 49 138 1.0 2.0 0.00 0.00 0.00 78 1017.4
20260504004240 50 138 1.0 2.0 0.00 0.00 0.00 77 1017.5
20260504003739 50 139 1.0 3.0 0.00 0.00 0.00 76 1017.6
20260504003242 50 139 0.0 2.0 0.00 0.00 0.00 74 1017.6
20260504002739 50 138 2.0 2.0 0.00 0.00 0.00 74 1017.7
20260504002236 50 138 0.0 2.0 0.00 0.00 0.00 73 1017.7
20260504001738 50 139 1.0 3.0 0.00 0.00 0.00 75 1017.8
20260504001245 50 138 3.0 3.0 0.00 0.00 0.00 75 1017.8
20260504000736 50 150 2.0 3.0 0.00 0.00 0.00 76 1017.8
20260504000236 50 150 0.0 1.0 0.00 0.00 0.00 71 1017.8
20260503235736 51 150 1.0 1.0 0.00 0.00 0.00 73 1017.8
20260503235236 51 150 0.0 2.0 0.00 0.00 0.00 73 1017.9
20260503234736 51 150 2.0 2.0 0.00 0.00 0.00 74 1017.8
20260503234242 51 150 2.0 2.0 0.00 0.00 0.00 72 1018.0
20260503233736 52 150 2.0 3.0 0.00 0.00 0.00 73 1018.1
20260503233236 52 150 1.0 2.0 0.00 0.00 0.00 71 1018.1
20260503232739 52 96 0.0 1.0 0.00 0.00 0.00 67 1018.1
20260503232236 52 96 1.0 2.0 0.00 0.00 0.00 68 1018.1
20260503231739 52 136 2.0 2.0 0.00 0.00 0.00 71 1018.1
20260503231242 52 136 0.0 2.0 0.00 0.00 0.00 70 1018.1
20260503230736 52 136 1.0 2.0 0.00 0.00 0.00 73 1018.1
20260503230236 52 136 1.0 3.0 0.00 0.00 0.00 75 1018.1
20260503225736 52 136 2.0 3.0 0.00 0.00 0.00 74 1018.1
20260503225239 53 121 1.0 2.0 0.00 0.00 0.00 72 1018.1
20260503224742 53 121 1.0 3.0 0.00 0.00 0.00 69 1018.1
20260503224236 54 89 1.0 1.0 0.00 0.00 0.00 68 1018.2
20260503223736 54 89 0.0 0.0 0.00 0.00 0.00 65 1018.3
20260503223236 54 89 0.0 2.0 0.00 0.00 0.00 62 1018.2
20260503222736 54 85 0.0 2.0 0.00 0.00 0.00 60 1018.2
20260503222239 54 95 1.0 2.0 0.00 0.00 0.00 62 1018.2
20260503221742 54 123 1.0 3.0 0.00 0.00 0.00 67 1018.2
20260503221236 54 124 2.0 3.0 0.00 0.00 0.00 70 1018.2
20260503220739 54 126 3.0 2.0 0.00 0.00 0.00 69 1018.2
20260503220236 54 126 0.0 3.0 0.00 0.00 0.00 67 1018.2
20260503215736 55 127 2.0 3.0 0.00 0.00 0.00 68 1018.1
20260503215242 55 127 0.0 0.0 0.00 0.00 0.00 64 1018.2
20260503214742 56 126 0.0 2.0 0.00 0.00 0.00 63 1018.1
20260503214242 56 121 1.0 3.0 0.00 0.00 0.00 60 1018.1
20260503213736 56 62 0.0 3.0 0.00 0.00 0.00 58 1018.1
20260503213239 56 66 2.0 3.0 0.00 0.00 0.00 59 1018.0
20260503212736 56 128 1.0 3.0 0.00 0.00 0.00 64 1018.0
20260503212236 56 134 1.0 2.0 0.00 0.00 0.00 66 1018.0
20260503211742 56 134 0.0 1.0 0.00 0.00 0.00 64 1017.9
20260503211239 57 134 1.0 4.0 0.00 0.00 0.00 58 1018.0
20260503210739 58 153 1.0 2.0 0.00 0.00 0.00 57 1017.9
20260503210236 58 144 2.0 3.0 0.00 0.00 0.00 57 1017.8
20260503205736 59 126 3.0 3.0 0.00 0.00 0.00 57 1017.8
20260503205239 59 134 1.0 2.0 0.00 0.00 0.00 54 1017.8
20260503204736 59 103 0.0 3.0 0.00 0.00 0.00 52 1017.7
20260503204236 59 103 2.0 3.0 0.00 0.00 0.00 53 1017.7
20260503203742 59 127 2.0 3.0 0.00 0.00 0.00 56 1017.8
20260503203239 59 121 2.0 3.0 0.00 0.00 0.00 56 1017.8
20260503202736 59 123 2.0 3.0 0.00 0.00 0.00 57 1017.8
20260503202239 60 124 1.0 2.0 0.00 0.00 0.00 55 1017.7
20260503201739 60 121 0.0 2.0 0.00 0.00 0.00 53 1017.6
20260503201236 61 227 0.0 2.0 0.00 0.00 0.00 53 1017.6
20260503200742 61 120 1.0 2.0 0.00 0.00 0.00 52 1017.7
20260503200238 61 195 1.0 2.0 0.00 0.00 0.00 49 1017.6
20260503195736 62 118 0.0 2.0 0.00 0.00 0.00 49 1017.5
20260503195245 62 170 0.0 6.0 0.00 0.00 0.00 51 1017.5
20260503194736 62 115 1.0 6.0 0.00 0.00 0.00 50 1017.5
20260503194236 62 119 2.0 4.0 0.00 0.00 0.00 50 1017.5
20260503193736 62 146 2.0 7.0 0.00 0.00 0.00 51 1017.4
20260503193245 62 135 3.0 6.0 0.00 0.00 0.00 51 1017.3
20260503192242 63 107 3.0 5.0 0.00 0.00 0.00 52 1017.2
20260503191739 63 143 2.0 8.0 0.00 0.00 0.00 52 1017.2
20260503191239 63 194 3.0 6.0 0.00 0.00 0.00 52 1017.1
20260503190739 63 156 2.0 7.0 0.00 0.00 0.00 52 1017.0
20260503190236 63 117 4.0 8.0 0.00 0.00 0.00 52 1017.0
20260503185739 63 159 5.0 7.0 0.00 0.00 0.00 52 1016.9
20260503185236 63 157 6.0 7.0 0.00 0.00 0.00 54 1016.9
20260503184736 63 149 5.0 8.0 0.00 0.00 0.00 55 1016.8
20260503184242 63 147 4.0 9.0 0.00 0.00 0.00 54 1016.7
20260503183736 63 134 3.0 6.0 0.00 0.00 0.00 55 1016.7
20260503183236 63 153 3.0 6.0 0.00 0.00 0.00 55 1016.7
20260503182736 64 141 2.0 6.0 0.00 0.00 0.00 54 1016.6
20260503182239 64 133 3.0 6.0 0.00 0.00 0.00 54 1016.5
20260503181736 64 142 4.0 7.0 0.00 0.00 0.00 55 1016.4
20260503181242 65 140 2.0 6.0 0.00 0.00 0.00 54 1016.3
20260503180739 65 141 2.0 5.0 0.00 0.00 0.00 54 1016.2
20260503180239 65 163 1.0 4.0 0.00 0.00 0.00 53 1016.2
20260503175736 65 167 3.0 5.0 0.00 0.00 0.00 53 1016.1
20260503175239 66 175 3.0 3.0 0.00 0.00 0.00 52 1016.1
20260503174736 66 157 0.0 5.0 0.00 0.00 0.00 52 1016.0
20260503174239 67 223 2.0 5.0 0.00 0.00 0.00 51 1015.9
20260503173739 67 159 2.0 3.0 0.00 0.00 0.00 51 1015.9
20260503173239 67 231 2.0 5.0 0.00 0.00 0.00 51 1015.9
20260503172737 68 180 4.0 7.0 0.00 0.00 0.00 50 1015.9
20260503172236 68 167 1.0 5.0 0.00 0.00 0.00 50 1015.9
20260503171736 69 240 1.0 5.0 0.00 0.00 0.00 49 1015.9
20260503171236 69 185 2.0 7.0 0.00 0.00 0.00 49 1015.9
20260503170736 70 209 1.0 5.0 0.00 0.00 0.00 50 1015.9
20260503170236 70 189 0.0 8.0 0.00 0.00 0.00 49 1015.9
20260503150739 72 249 1.0 7.0 0.00 0.00 0.00 44 1015.9
20260503150236 73 273 4.0 8.0 0.00 0.00 0.00 44 1016.0
20260503140239 72 180 2.0 7.0 0.00 0.00 0.00 45 1016.9
20260503131236 71 211 5.0 8.0 0.00 0.00 0.00 54 1017.2
20260503130742 71 254 2.0 7.0 0.00 0.00 0.00 54 1017.2
20260503130239 71 281 6.0 14.0 0.00 0.00 0.00 52 1017.3